KC9S Weather Reports


time (UTC)temp
C
wind
direction
speed
KPH
gust
KPH
rain 1hr
cm
rain 24hr
cm
rain mn
cm
humidity
%
barometer
mb
20260905224516 32 0.0 0.0 0.00 0.00 0.00 72 1011.7
20260905223516 32 0.0 0.0 0.00 0.00 0.00 71 1011.6
20260905222516 32 0.0 0.0 0.00 0.00 0.00 69 1011.5
20260905221516 32 0.0 0.0 0.00 0.00 0.00 67 1011.5
20260905220516 33 0.0 0.0 0.00 0.00 0.00 65 1011.6
20260905215516 33 0.0 0.0 0.00 0.00 0.00 66 1011.6
20260905214516 33 0.0 0.0 0.00 0.00 0.00 65 1011.8
20260905213515 33 0.0 0.0 0.00 0.00 0.00 62 1011.7
20260905212516 33 0.0 0.0 0.00 0.00 0.00 62 1011.6
20260905211516 34 0.0 0.0 0.00 0.00 0.00 61 1011.7
20260905210536 34 0.0 0.0 0.00 0.00 0.00 59 1011.7
20260905205556 34 0.0 0.0 0.00 0.00 0.00 60 1011.7
20260905204536 34 0.0 0.0 0.00 0.00 0.00 60 1011.7
20260905203516 34 0.0 0.0 0.00 0.00 0.00 61 1011.9
20260905202516 35 0.0 0.0 0.00 0.00 0.00 58 1011.9
20260905201516 35 0.0 0.0 0.00 0.00 0.00 56 1012.0
20260905200515 35 0.0 0.0 0.00 0.00 0.00 56 1012.1
20260905195536 35 0.0 0.0 0.00 0.00 0.00 56 1012.0
20260905194516 35 0.0 0.0 0.00 0.00 0.00 55 1012.0
20260905193535 35 0.0 0.0 0.00 0.00 0.00 52 1012.0
20260905192516 35 0.0 0.0 0.00 0.00 0.00 53 1012.2
20260905191516 35 0.0 0.0 0.00 0.00 0.00 53 1012.4
20260905190536 35 0.0 0.0 0.00 0.00 0.00 55 1012.5
20260905185515 34 0.0 0.0 0.00 0.00 0.00 57 1012.6
20260905184538 34 0.0 0.0 0.00 0.00 0.00 56 1012.5
20260905183517 35 0.0 0.0 0.00 0.00 0.00 55 1012.8
20260905182517 35 0.0 0.0 0.00 0.00 0.00 55 1012.7
20260905181538 35 0.0 0.0 0.00 0.00 0.00 54 1012.8
20260905180517 35 0.0 0.0 0.00 0.00 0.00 56 1012.8
20260905175517 35 0.0 0.0 0.00 0.00 0.00 57 1013.0
20260905174517 35 0.0 0.0 0.00 0.00 0.00 55 1013.0
20260905173515 35 0.0 0.0 0.00 0.00 0.00 56 1013.1
20260905172518 34 0.0 0.0 0.00 0.00 0.00 59 1013.1
20260905171517 33 0.0 0.0 0.00 0.00 0.00 59 1013.2
20260905170517 33 0.0 0.0 0.00 0.00 0.00 59 1013.2
20260905165517 33 0.0 0.0 0.00 0.00 0.00 58 1013.2
20260905164518 33 0.0 0.0 0.00 0.00 0.00 61 1013.2
20260905163537 33 0.0 0.0 0.00 0.00 0.00 62 1013.4
20260905162518 33 0.0 0.0 0.00 0.00 0.00 60 1013.4
20260905161517 33 0.0 0.0 0.00 0.00 0.00 59 1013.3
20260905160517 33 0.0 0.0 0.00 0.00 0.00 63 1013.4
20260905155517 32 0.0 0.0 0.00 0.00 0.00 62 1013.4
20260905154518 32 0.0 0.0 0.00 0.00 0.00 62 1013.5
20260905153517 32 0.0 0.0 0.00 0.00 0.00 61 1013.1
20260905152515 32 0.0 0.0 0.00 0.00 0.00 64 1013.2
20260905151518 31 0.0 0.0 0.00 0.00 0.00 66 1013.2
20260905150517 31 0.0 0.0 0.00 0.00 0.00 66 1013.3
20260905145537 30 0.0 0.0 0.00 0.00 0.00 69 1013.2
20260905144517 30 0.0 0.0 0.00 0.00 0.00 72 1013.3
20260905143517 29 0.0 0.0 0.00 0.00 0.00 74 1013.5
20260905142517 28 0.0 0.0 0.00 0.00 0.00 78 1013.4
20260905141517 28 0.0 0.0 0.00 0.00 0.00 79 1013.4
20260905140537 27 0.0 0.0 0.00 0.00 0.00 81 1013.3
20260905135538 27 0.0 0.0 0.00 0.00 0.00 82 1013.3
20260905134517 26 0.0 0.0 0.00 0.00 0.00 82 1013.4
20260905133517 26 0.0 0.0 0.00 0.00 0.00 82 1013.3
20260905132558 26 0.0 0.0 0.00 0.00 0.00 83 1013.4
20260905131518 25 0.0 0.0 0.00 0.00 0.00 84 1013.4
20260905130517 25 0.0 0.0 0.00 0.00 0.00 85 1013.5
20260905125517 25 0.0 0.0 0.00 0.00 0.00 85 1013.4
20260905124517 25 0.0 0.0 0.00 0.00 0.00 86 1013.2
20260905123517 25 0.0 0.0 0.00 0.00 0.00 87 1013.2
20260905122517 24 0.0 0.0 0.00 0.00 0.00 86 1013.1
20260905121517 24 0.0 0.0 0.00 0.00 0.00 86 1013.1
20260905120518 24 0.0 0.0 0.00 0.00 0.00 86 1013.1
20260905115517 24 0.0 0.0 0.00 0.00 0.00 86 1013.0
20260905114517 24 0.0 0.0 0.00 0.00 0.00 86 1013.0
20260905113517 25 0.0 0.0 0.00 0.00 0.00 85 1013.0
20260905112537 25 0.0 0.0 0.00 0.00 0.00 84 1013.1
20260905111517 25 0.0 0.0 0.00 0.00 0.00 84 1013.1
20260905110517 25 0.0 0.0 0.00 0.00 0.00 84 1013.0
20260905105518 25 0.0 0.0 0.00 0.00 0.00 85 1013.1
20260905104517 24 0.0 0.0 0.00 0.00 0.00 85 1013.0
20260905103517 24 0.0 0.0 0.00 0.00 0.00 86 1013.1
20260905102517 24 0.0 0.0 0.00 0.00 0.00 86 1013.1
20260905101517 24 0.0 0.0 0.00 0.00 0.00 87 1013.0
20260905100517 25 0.0 0.0 0.00 0.00 0.00 86 1013.0
20260905095517 24 0.0 0.0 0.00 0.00 0.00 87 1012.8
20260905094517 24 0.0 0.0 0.00 0.00 0.00 87 1012.9
20260905093517 24 0.0 0.0 0.00 0.00 0.00 87 1012.6
20260905092517 24 0.0 0.0 0.00 0.00 0.00 87 1012.6
20260905091557 24 0.0 0.0 0.00 0.00 0.00 88 1012.5
20260905090517 24 0.0 0.0 0.00 0.00 0.00 88 1012.5
20260905085517 24 0.0 0.0 0.00 0.00 0.00 88 1012.7
20260905084517 24 0.0 0.0 0.00 0.00 0.00 88 1012.8
20260905083517 24 0.0 0.0 0.00 0.00 0.00 87 1012.9
20260905082518 24 0.0 0.0 0.00 0.00 0.00 88 1012.9
20260905081516 24 0.0 0.0 0.00 0.00 0.00 88 1013.1
20260905080517 25 0.0 0.0 0.00 0.00 0.00 88 1013.2
20260905075516 25 0.0 0.0 0.00 0.00 0.00 88 1013.0
20260905074516 25 0.0 0.0 0.00 0.00 0.00 88 1013.1
20260905073516 25 0.0 0.0 0.00 0.00 0.00 88 1013.0
20260905072537 25 0.0 0.0 0.00 0.00 0.00 88 1013.1
20260905071516 25 0.0 0.0 0.00 0.00 0.00 88 1013.1
20260905070536 25 0.0 0.0 0.00 0.00 0.00 87 1013.2
20260905065517 25 0.0 0.0 0.00 0.00 0.00 87 1013.2
20260905064516 25 0.0 0.0 0.00 0.00 0.00 87 1013.2
20260905063518 25 0.0 0.0 0.00 0.00 0.00 87 1013.3
20260905062516 25 0.0 0.0 0.00 0.00 0.00 87 1013.3
20260905061516 25 0.0 0.0 0.00 0.00 0.00 87 1013.3
20260905060517 25 0.0 0.0 0.00 0.00 0.00 86 1013.3
20260905055516 25 0.0 0.0 0.00 0.00 0.00 86 1013.3
20260905054516 25 0.0 0.0 0.00 0.00 0.00 86 1013.3
20260905053516 25 0.0 0.0 0.00 0.00 0.00 85 1013.4
20260905052516 26 0.0 0.0 0.00 0.00 0.00 85 1013.6
20260905051516 26 0.0 0.0 0.00 0.00 0.00 85 1013.5
20260905050517 26 0.0 0.0 0.00 0.00 0.00 84 1013.2
20260905045536 26 0.0 0.0 0.00 0.00 0.00 85 1013.4
20260905044516 26 0.0 0.0 0.00 0.00 0.00 84 1013.5
20260905043516 26 0.0 0.0 0.00 0.00 0.00 84 1013.6
20260905042516 26 0.0 0.0 0.00 0.00 0.00 83 1013.5
20260905041516 26 0.0 0.0 0.00 0.00 0.00 82 1013.6
20260905040516 26 0.0 0.0 0.00 0.00 0.00 82 1013.6
20260905035516 27 0.0 0.0 0.00 0.00 0.00 81 1013.5
20260905034516 27 0.0 0.0 0.00 0.00 0.00 80 1013.6
20260905033516 27 0.0 0.0 0.00 0.00 0.00 80 1013.5
20260905032516 27 0.0 0.0 0.00 0.00 0.00 77 1013.5
20260905031516 27 0.0 0.0 0.00 0.00 0.00 77 1013.6
20260905030516 27 0.0 0.0 0.00 0.00 0.00 76 1013.3
20260905025516 27 0.0 0.0 0.00 0.00 0.00 76 1013.0
20260905024516 27 0.0 0.0 0.00 0.00 0.00 77 1013.0
20260905023516 27 0.0 0.0 0.00 0.00 0.00 78 1013.1
20260905022557 28 0.0 0.0 0.00 0.00 0.00 77 1013.0
20260905021516 28 0.0 0.0 0.00 0.00 0.00 76 1013.0
20260905020516 28 0.0 0.0 0.00 0.00 0.00 76 1012.9
20260905015516 28 0.0 0.0 0.00 0.00 0.00 74 1013.0
20260905014536 28 0.0 0.0 0.00 0.00 0.00 73 1012.7
20260905013516 29 0.0 0.0 0.00 0.00 0.00 73 1012.8
20260905012536 30 0.0 0.0 0.00 0.00 0.00 72 1012.5
20260905011515 30 0.0 0.0 0.00 0.00 0.00 71 1012.4
20260905010516 30 0.0 0.0 0.00 0.00 0.00 68 1012.3
20260905005516 30 0.0 0.0 0.00 0.00 0.00 68 1012.3
20260905004535 31 0.0 0.0 0.00 0.00 0.00 65 1012.3
20260905003516 31 0.0 0.0 0.00 0.00 0.00 67 1012.3
20260905002515 32 0.0 0.0 0.00 0.00 0.00 66 1012.3
20260905001516 32 0.0 0.0 0.00 0.00 0.00 63 1012.3
20260905000540 32 0.0 0.0 0.00 0.00 0.00 62 1012.4
20260904235516 33 0.0 0.0 0.00 0.00 0.00 60 1012.4
20260904234515 33 0.0 0.0 0.00 0.00 0.00 58 1012.3
20260904233535 33 0.0 0.0 0.00 0.00 0.00 51 1012.2
20260904232515 34 0.0 0.0 0.00 0.00 0.00 50 1012.2
20260904231515 34 0.0 0.0 0.00 0.00 0.00 48 1012.1
20260904230515 35 0.0 0.0 0.00 0.00 0.00 48 1012.2
20260904225515 35 0.0 0.0 0.00 0.00 0.00 48 1012.1